Location: Newark
(42.7133°N, 87.7910°W)
Time: 19:27:04
(UTC+00:00)

Vanguard 1 - Pass Details

Date: 23 September 2019
Orbit: 653 x 3830 km, 34.3° (Epoch: 14 October)

Event Time Altitude Azimuth Distance (km) Brightness Sun altitude
Rises 10:02:47 0° 264° (W) 7,954 - -18.3°
Reaches altitude 10° 10:08:20 10° 262° (W) 6,929 - -17.3°
Exits shadow 10:12:40 19° 260° (W) 6,106 13.4 -16.5°
Maximum altitude 10:30:40 65° 188° (S) 3,304 12.6 -13.3°
Drops below altitude 10° 10:44:42 10° 111° (ESE) 4,623 14.5 -10.8°
Sets 10:47:35 0° 108° (ESE) 5,288 15.0 -10.3°
